Year,Month,Day,Hour,Minute,Value (Times are PST for temperature in C)
2009,09,16,16,12,16.20
2009,09,16,16,13,16.20
2009,09,16,16,14,16.20
2009,09,16,16,15,16.20
2009,09,16,16,16,16.20
2009,09,16,16,17,16.20
2009,09,16,16,18,16.20
2009,09,16,16,19,16.20
2009,09,16,16,20,16.20
2009,09,16,16,21,16.30
2009,09,16,16,22,16.30
2009,09,16,16,23,16.30
2009,09,16,16,24,16.30
2009,09,16,16,25,16.40
2009,09,16,16,26,16.40
2009,09,16,16,27,16.50
2009,09,16,16,28,16.50
2009,09,16,16,29,16.60
2009,09,16,16,30,16.60
2009,09,16,16,31,16.60
2009,09,16,16,32,16.60
2009,09,16,16,33,16.60
2009,09,16,16,34,16.50
2009,09,16,16,35,16.50
2009,09,16,16,36,16.40
2009,09,16,16,37,16.40
2009,09,16,16,38,16.30
2009,09,16,16,39,16.20
2009,09,16,16,40,16.20
2009,09,16,16,41,16.20
2009,09,16,16,42,16.20
2009,09,16,16,43,16.10
2009,09,16,16,44,16.10
2009,09,16,16,45,16.10
2009,09,16,16,46,16.10
2009,09,16,16,47,16.10
2009,09,16,16,48,16.10
2009,09,16,16,49,16.10
2009,09,16,16,50,16.00
2009,09,16,16,51,16.00
2009,09,16,16,52,16.00
2009,09,16,16,53,16.00
2009,09,16,16,54,15.90
2009,09,16,16,55,15.90
2009,09,16,16,56,15.90
2009,09,16,16,57,15.90
2009,09,16,16,58,15.90
2009,09,16,16,59,15.90
2009,09,16,17,00,15.90
2009,09,16,17,01,15.90
2009,09,16,17,02,15.90
2009,09,16,17,03,15.90
2009,09,16,17,04,15.90
2009,09,16,17,05,15.90
2009,09,16,17,06,15.90
2009,09,16,17,07,15.90
2009,09,16,17,08,16.00
2009,09,16,17,09,16.00
2009,09,16,17,10,16.00
2009,09,16,17,11,15.90
2009,09,16,17,12,15.90
2009,09,16,17,13,15.80
2009,09,16,17,14,15.80
2009,09,16,17,15,15.70
2009,09,16,17,16,15.60
2009,09,16,17,17,15.50
2009,09,16,17,18,15.50
2009,09,16,17,19,15.40
2009,09,16,17,20,15.30
2009,09,16,17,21,15.30
2009,09,16,17,22,15.20
2009,09,16,17,23,15.20
2009,09,16,17,24,15.20
2009,09,16,17,25,15.10
2009,09,16,17,26,15.10
2009,09,16,17,27,15.00
2009,09,16,17,28,15.00
2009,09,16,17,29,15.00
2009,09,16,17,30,15.00
2009,09,16,17,31,15.00
2009,09,16,17,32,15.00
2009,09,16,17,33,15.00
2009,09,16,17,34,15.10
2009,09,16,17,35,15.10
2009,09,16,17,36,15.20
2009,09,16,17,37,15.20
2009,09,16,17,38,15.20
2009,09,16,17,39,15.30
2009,09,16,17,40,15.30
2009,09,16,17,41,15.30
2009,09,16,17,42,15.30
2009,09,16,17,43,15.20
2009,09,16,17,44,15.20
2009,09,16,17,45,15.20
2009,09,16,17,46,15.10
2009,09,16,17,47,15.10
2009,09,16,17,48,15.00
2009,09,16,17,49,15.00
2009,09,16,17,50,15.00
2009,09,16,17,51,15.00
2009,09,16,17,52,15.00
2009,09,16,17,53,15.00
2009,09,16,17,54,15.00
2009,09,16,17,55,15.00
2009,09,16,17,56,15.00
2009,09,16,17,57,15.00
2009,09,16,17,58,15.00
2009,09,16,17,59,15.00
2009,09,16,18,00,15.00
2009,09,16,18,01,15.00
2009,09,16,18,02,15.00
2009,09,16,18,03,15.00
2009,09,16,18,04,15.00
2009,09,16,18,05,15.00
2009,09,16,18,06,15.00
2009,09,16,18,07,15.00
2009,09,16,18,08,15.00
2009,09,16,18,09,15.00
2009,09,16,18,10,15.00
2009,09,16,18,11,15.00
2009,09,16,18,12,15.00
2009,09,16,18,13,14.90
2009,09,16,18,14,14.90
2009,09,16,18,15,14.80
2009,09,16,18,16,14.80
2009,09,16,18,17,14.80
2009,09,16,18,18,14.70
2009,09,16,18,19,14.70
2009,09,16,18,20,14.60
2009,09,16,18,21,14.50
2009,09,16,18,22,14.50
2009,09,16,18,23,14.50
2009,09,16,18,24,14.40
2009,09,16,18,25,14.40
2009,09,16,18,26,14.40
2009,09,16,18,27,14.40
2009,09,16,18,28,14.30
2009,09,16,18,29,14.30
2009,09,16,18,30,14.30
2009,09,16,18,31,14.30
2009,09,16,18,32,14.30
2009,09,16,18,33,14.30
2009,09,16,18,34,14.30
2009,09,16,18,35,14.30
2009,09,16,18,36,14.20
2009,09,16,18,37,14.20
2009,09,16,18,38,14.20
2009,09,16,18,39,14.20
2009,09,16,18,40,14.10
2009,09,16,18,41,14.10
2009,09,16,18,42,14.10
2009,09,16,18,43,14.10
2009,09,16,18,44,14.10
2009,09,16,18,45,14.10
2009,09,16,18,46,14.10
2009,09,16,18,47,14.00
2009,09,16,18,48,14.00
2009,09,16,18,49,14.00
2009,09,16,18,50,13.90
2009,09,16,18,51,13.90
2009,09,16,18,52,13.80
2009,09,16,18,53,13.70
2009,09,16,18,54,13.70
2009,09,16,18,55,13.70
2009,09,16,18,56,13.60
2009,09,16,18,57,13.60
2009,09,16,18,58,13.60
2009,09,16,18,59,13.60
2009,09,16,19,00,13.60
2009,09,16,19,01,13.60
2009,09,16,19,02,13.60
2009,09,16,19,03,13.60
2009,09,16,19,04,13.60
2009,09,16,19,05,13.60
2009,09,16,19,06,13.60
2009,09,16,19,07,13.50
2009,09,16,19,08,13.60
2009,09,16,19,09,13.60
2009,09,16,19,10,13.60
2009,09,16,19,11,13.60
2009,09,16,19,12,13.70
2009,09,16,19,13,13.70
2009,09,16,19,14,13.70
2009,09,16,19,15,13.70
2009,09,16,19,16,13.70
2009,09,16,19,17,13.70
2009,09,16,19,18,13.70
2009,09,16,19,19,13.80
2009,09,16,19,20,13.70
2009,09,16,19,21,13.80
2009,09,16,19,22,13.80
2009,09,16,19,23,13.80
2009,09,16,19,24,13.80
2009,09,16,19,25,13.80
2009,09,16,19,26,13.80
2009,09,16,19,27,13.80
2009,09,16,19,28,13.80
2009,09,16,19,29,13.80
2009,09,16,19,30,13.80
2009,09,16,19,31,13.80
2009,09,16,19,32,13.80
2009,09,16,19,33,13.80
2009,09,16,19,34,13.80
2009,09,16,19,35,13.80
2009,09,16,19,36,13.80
2009,09,16,19,37,13.80
2009,09,16,19,38,13.80
2009,09,16,19,39,13.80
2009,09,16,19,40,13.80
2009,09,16,19,41,13.80
2009,09,16,19,42,13.80
2009,09,16,19,43,13.80
2009,09,16,19,44,13.80
2009,09,16,19,45,13.80
2009,09,16,19,46,13.80
2009,09,16,19,47,13.70
2009,09,16,19,48,13.70
2009,09,16,19,49,13.70
2009,09,16,19,50,13.70
2009,09,16,19,51,13.70
2009,09,16,19,52,13.70
2009,09,16,19,53,13.70
2009,09,16,19,54,13.70
2009,09,16,19,55,13.70
2009,09,16,19,56,13.70
2009,09,16,19,57,13.60
2009,09,16,19,58,13.60
2009,09,16,19,59,13.60
2009,09,16,20,00,13.50
2009,09,16,20,01,13.40
2009,09,16,20,02,13.30
2009,09,16,20,03,13.20
2009,09,16,20,04,13.20
2009,09,16,20,05,13.10
2009,09,16,20,06,13.00
2009,09,16,20,07,12.90
2009,09,16,20,08,12.90
2009,09,16,20,09,12.80
2009,09,16,20,10,12.80
2009,09,16,20,11,12.80
2009,09,16,20,12,12.80
2009,09,16,20,13,12.70
2009,09,16,20,14,12.70
2009,09,16,20,15,12.60
2009,09,16,20,16,12.60
2009,09,16,20,17,12.60
2009,09,16,20,18,12.50
2009,09,16,20,19,12.40
2009,09,16,20,20,12.40
2009,09,16,20,21,12.40
2009,09,16,20,22,12.40
2009,09,16,20,23,12.40
2009,09,16,20,24,12.40
2009,09,16,20,25,12.40
2009,09,16,20,26,12.40
2009,09,16,20,27,12.40
2009,09,16,20,28,12.40
2009,09,16,20,29,12.40
2009,09,16,20,30,12.50
2009,09,16,20,31,12.50
2009,09,16,20,32,12.50
2009,09,16,20,33,12.50
2009,09,16,20,34,12.60
2009,09,16,20,35,12.60
2009,09,16,20,36,12.60
2009,09,16,20,37,12.60
2009,09,16,20,38,12.60
2009,09,16,20,39,12.60
2009,09,16,20,40,12.60
2009,09,16,20,41,12.60
2009,09,16,20,42,12.60
2009,09,16,20,43,12.60
2009,09,16,20,44,12.60
2009,09,16,20,45,12.60
2009,09,16,20,46,12.60
2009,09,16,20,47,12.60
2009,09,16,20,48,12.60
2009,09,16,20,49,12.60
2009,09,16,20,50,12.70
2009,09,16,20,51,12.60
2009,09,16,20,52,12.70
2009,09,16,20,53,12.70
2009,09,16,20,54,12.70
2009,09,16,20,55,12.70
2009,09,16,20,56,12.70
2009,09,16,20,57,12.70
2009,09,16,20,58,12.70
2009,09,16,20,59,12.70
2009,09,16,21,00,12.70
2009,09,16,21,01,12.70
2009,09,16,21,02,12.60
2009,09,16,21,03,12.60
2009,09,16,21,04,12.60
2009,09,16,21,05,12.60
2009,09,16,21,06,12.60
2009,09,16,21,07,12.60
2009,09,16,21,08,12.60
2009,09,16,21,09,12.60
2009,09,16,21,10,12.60
2009,09,16,21,11,12.60
2009,09,16,21,12,12.60
2009,09,16,21,13,12.60
2009,09,16,21,14,12.60
2009,09,16,21,15,12.60
2009,09,16,21,16,12.60
2009,09,16,21,17,12.60
2009,09,16,21,18,12.60
2009,09,16,21,19,12.60
2009,09,16,21,20,12.50
2009,09,16,21,21,12.50
2009,09,16,21,22,12.50
2009,09,16,21,23,12.50
2009,09,16,21,24,12.50
2009,09,16,21,25,12.50
2009,09,16,21,26,12.40
2009,09,16,21,27,12.40
2009,09,16,21,28,12.40
2009,09,16,21,29,12.40
2009,09,16,21,30,12.40
2009,09,16,21,31,12.30
2009,09,16,21,32,12.30
2009,09,16,21,33,12.30
2009,09,16,21,34,12.30
2009,09,16,21,35,12.30
2009,09,16,21,36,12.20
2009,09,16,21,37,12.20
2009,09,16,21,38,12.20
2009,09,16,21,39,12.20
2009,09,16,21,40,12.10
2009,09,16,21,41,12.10
2009,09,16,21,42,12.10
2009,09,16,21,43,12.10
2009,09,16,21,44,12.10
2009,09,16,21,45,12.10
2009,09,16,21,46,12.10
2009,09,16,21,47,12.10
2009,09,16,21,48,12.10
2009,09,16,21,49,12.10
2009,09,16,21,50,12.10
2009,09,16,21,51,12.10
2009,09,16,21,52,12.10
2009,09,16,21,53,12.10
2009,09,16,21,54,12.10
2009,09,16,21,55,12.10
2009,09,16,21,56,12.10
2009,09,16,21,57,12.10
2009,09,16,21,58,12.10
2009,09,16,21,59,12.10
2009,09,16,22,00,12.10
2009,09,16,22,01,12.10
2009,09,16,22,02,12.10
2009,09,16,22,03,12.10
2009,09,16,22,04,12.10
2009,09,16,22,05,12.10
2009,09,16,22,06,12.10
2009,09,16,22,07,12.10
2009,09,16,22,08,12.10
2009,09,16,22,09,12.10
2009,09,16,22,10,12.00
2009,09,16,22,11,12.00
2009,09,16,22,12,12.00
2009,09,16,22,13,12.00
2009,09,16,22,14,12.00
2009,09,16,22,15,12.00
2009,09,16,22,16,12.00
2009,09,16,22,17,11.90
2009,09,16,22,18,11.90
2009,09,16,22,19,11.90
2009,09,16,22,20,11.90
2009,09,16,22,21,11.90
2009,09,16,22,22,11.90
2009,09,16,22,23,11.90
2009,09,16,22,24,11.90
2009,09,16,22,25,11.90
2009,09,16,22,26,11.90
2009,09,16,22,27,11.90
2009,09,16,22,28,11.90
2009,09,16,22,29,11.90
2009,09,16,22,30,11.90
2009,09,16,22,31,11.80
2009,09,16,22,32,11.80
2009,09,16,22,33,11.80
2009,09,16,22,34,11.80
2009,09,16,22,35,11.70
2009,09,16,22,36,11.70
2009,09,16,22,37,11.70
2009,09,16,22,38,11.70
2009,09,16,22,39,11.70
2009,09,16,22,40,11.70
2009,09,16,22,41,11.70
2009,09,16,22,42,11.70
2009,09,16,22,43,11.60
2009,09,16,22,44,11.60
2009,09,16,22,45,11.60
2009,09,16,22,46,11.60
2009,09,16,22,47,11.60
2009,09,16,22,48,11.60
2009,09,16,22,49,11.60
2009,09,16,22,50,11.60
2009,09,16,22,51,11.50
2009,09,16,22,52,11.50
2009,09,16,22,53,11.50
2009,09,16,22,54,11.50
2009,09,16,22,55,11.50
2009,09,16,22,56,11.50
2009,09,16,22,57,11.50
2009,09,16,22,58,11.40
2009,09,16,22,59,11.40
2009,09,16,23,00,11.40
2009,09,16,23,01,11.40
2009,09,16,23,02,11.40
2009,09,16,23,03,11.40
2009,09,16,23,04,11.40
2009,09,16,23,05,11.50
2009,09,16,23,06,11.40
2009,09,16,23,07,11.50
2009,09,16,23,08,11.40
2009,09,16,23,09,11.40
2009,09,16,23,10,11.40
2009,09,16,23,11,11.40
2009,09,16,23,12,11.40
2009,09,16,23,13,11.40
2009,09,16,23,14,11.40
2009,09,16,23,15,11.40
2009,09,16,23,16,11.40
2009,09,16,23,17,11.40
2009,09,16,23,18,11.40
2009,09,16,23,19,11.40
2009,09,16,23,20,11.40
2009,09,16,23,21,11.40
2009,09,16,23,22,11.40
2009,09,16,23,23,11.40
2009,09,16,23,24,11.40
2009,09,16,23,25,11.40
2009,09,16,23,26,11.40
2009,09,16,23,27,11.40
2009,09,16,23,28,11.40
2009,09,16,23,29,11.40
2009,09,16,23,30,11.40
2009,09,16,23,31,11.40
2009,09,16,23,32,11.40
2009,09,16,23,33,11.40
2009,09,16,23,34,11.30
2009,09,16,23,35,11.30
2009,09,16,23,36,11.30
2009,09,16,23,37,11.30
2009,09,16,23,38,11.30
2009,09,16,23,39,11.30
2009,09,16,23,40,11.30
2009,09,16,23,41,11.30
2009,09,16,23,42,11.30
2009,09,16,23,43,11.20
2009,09,16,23,44,11.20
2009,09,16,23,45,11.20
2009,09,16,23,46,11.20
2009,09,16,23,47,11.20
2009,09,16,23,48,11.20
2009,09,16,23,49,11.20
2009,09,16,23,50,11.20
2009,09,16,23,51,11.20
2009,09,16,23,52,11.20
2009,09,16,23,53,11.30
2009,09,16,23,54,11.30
2009,09,16,23,55,11.20
2009,09,16,23,56,11.20
2009,09,16,23,57,11.20
2009,09,16,23,58,11.20
2009,09,16,23,59,11.20
